Oceana NAS, VA

6:37 PM EDT on June 28, 2017 (GMT -0400)
Oceana Naval Air Station

Weather History for KNTU - January, 2014

Change the Weather History Date:

Friday, January 10, 2014

  Actual Average Record
Temperature  
Mean Temperature 46 °F -  
Max Temperature 63 °F 48 °F 71 °F (2016)
Min Temperature 30 °F 31 °F 10 °F (2017)
Degree Days  
Heating Degree Days 18    
Moisture  
Dew Point 45 °F    
Average Humidity 86    
Maximum Humidity 97    
Minimum Humidity 60    
Precipitation  
Precipitation 0.09 in - - ()
Sea Level Pressure  
Sea Level Pressure 30.31 in    
Wind  
Wind Speed 6 mph (SE)    
Max Wind Speed 13 mph    
Max Gust Speed 29 mph    
Visibility 7 miles    
Events Rain    
Averages and records for this station are not official NWS values.
T = Trace of Precipitation, MM = Missing Value Source: NWS Daily Summary

Daily Weather History Graph

Daily Weather History Graph

Search for Another Location

Airport or City:

Trip Planner

Search our weather history database for the weather conditions in past years. The results will help you decide how hot, cold, wet, or windy it might be!

Date:

Astronomy

Jan. 10, 2014 Rise Set
Actual Time 7:17 AM EST 5:06 PM EST
Civil Twilight 6:48 AM EST 5:35 PM EST
Nautical Twilight 6:16 AM EST 6:07 PM EST
Astronomical Twilight 5:45 AM EST 6:38 PM EST
Moon 1:07 PM EST (1/10) 2:24 AM EST (1/10)
Length of Visible Light 10h 46m
Length of Day
9h 49m
Waxing Gibbous, 75% of the Moon is Illuminated
Jan 10
Waxing Gibbous
Jan 15
Full
Jan 24
Last Quarter
Jan 30
New
Feb 6
First Quarter

Hourly Weather History & Observations

Time (EST) Temp. Windchill Dew Point Humidity Pressure Visibility Wind Dir Wind Speed Gust Speed Precip Events Conditions
12:56 AM 32.0 °F - 28.0 °F 85% 30.49 in 10.0 mi Calm Calm - N/A   Scattered Clouds
1:56 AM 30.9 °F 27.5 °F 28.0 °F 89% 30.46 in 10.0 mi East 3.5 mph - N/A   Partly Cloudy
2:56 AM 34.0 °F - 30.9 °F 89% 30.45 in 10.0 mi Calm Calm - N/A   Mostly Cloudy
3:56 AM 46.0 °F 43.1 °F 41.0 °F 83% 30.43 in 10.0 mi SE 5.8 mph - N/A   Overcast
4:56 AM 48.0 °F - 43.0 °F 83% 30.41 in 10.0 mi SE 8.1 mph - N/A   Mostly Cloudy
5:56 AM 48.0 °F - 44.1 °F 86% 30.40 in 10.0 mi SE 6.9 mph - N/A   Mostly Cloudy
6:56 AM 48.9 °F - 44.1 °F 83% 30.40 in 10.0 mi SE 8.1 mph - N/A   Mostly Cloudy
7:56 AM 52.0 °F - 45.0 °F 77% 30.41 in 10.0 mi SSE 5.8 mph - N/A   Mostly Cloudy
8:56 AM 54.0 °F - 46.9 °F 77% 30.41 in 10.0 mi SSE 11.5 mph - N/A   Mostly Cloudy
9:56 AM 59.0 °F - 48.0 °F 67% 30.40 in 10.0 mi South 11.5 mph 21.9 mph N/A   Mostly Cloudy
10:56 AM 62.1 °F - 48.0 °F 60% 30.38 in 10.0 mi South 12.7 mph 28.8 mph N/A   Mostly Cloudy
11:56 AM 63.0 °F - 48.9 °F 60% 30.34 in 10.0 mi SSE 9.2 mph 18.4 mph N/A   Mostly Cloudy
12:56 PM 55.9 °F - 44.1 °F 64% 30.32 in 10.0 mi NNW 9.2 mph - N/A   Mostly Cloudy
1:56 PM 46.0 °F 40.6 °F 39.9 °F 79% 30.33 in 6.0 mi NW 11.5 mph - N/A   Haze
2:08 PM 45.0 °F 39.7 °F 39.9 °F 82% 30.32 in 4.0 mi NNW 10.4 mph - 0.00 in Rain Light Rain
2:21 PM 43.0 °F 37.2 °F 41.0 °F 93% 30.32 in 2.5 mi NNW 10.4 mph - 0.01 in Rain Light Rain
2:56 PM 43.0 °F 36.8 °F 41.0 °F 93% 30.33 in 2.0 mi NNW 11.5 mph - 0.06 in Rain Light Rain
3:28 PM 42.1 °F 37.7 °F 41.0 °F 96% 30.32 in 1.8 mi NNW 6.9 mph - 0.02 in Rain Light Rain
3:42 PM 42.1 °F 38.4 °F 41.0 °F 96% 30.31 in 2.0 mi NNW 5.8 mph - 0.02 in Rain Light Rain
3:56 PM 43.0 °F 39.5 °F 42.1 °F 97% 30.31 in 2.5 mi North 5.8 mph - 0.02 in Rain Light Rain
4:05 PM 43.0 °F 39.5 °F 41.0 °F 93% 30.31 in 3.0 mi NNW 5.8 mph - 0.00 in   Overcast
4:56 PM 43.0 °F 41.3 °F 42.1 °F 97% 30.30 in 3.0 mi NNE 3.5 mph - 0.00 in   Overcast
5:56 PM 44.1 °F - 42.1 °F 93% 30.29 in 4.0 mi Calm Calm - N/A   Overcast
6:56 PM 45.0 °F - 43.0 °F 93% 30.28 in 5.0 mi Calm Calm - N/A   Overcast
7:56 PM 50.0 °F - 48.0 °F 93% 30.25 in 6.0 mi SE 9.2 mph - N/A   Overcast
8:36 PM 53.1 °F - 50.0 °F 89% 30.24 in 6.0 mi SSE 8.1 mph - 0.00 in Rain Light Rain
8:48 PM 53.1 °F - 50.0 °F 89% 30.23 in 6.0 mi SE 8.1 mph - 0.00 in   Mostly Cloudy
8:56 PM 54.0 °F - 51.1 °F 90% 30.24 in 6.0 mi SE 8.1 mph - 0.00 in   Mostly Cloudy
9:47 PM 57.0 °F - 53.1 °F 87% 30.22 in 7.0 mi SSE 10.4 mph - 0.00 in Rain Light Rain
9:56 PM 57.0 °F - 53.1 °F 87% 30.22 in 7.0 mi SE 12.7 mph - 0.00 in Rain Light Rain
10:02 PM 57.0 °F - 53.1 °F 87% 30.20 in 6.0 mi SE 11.5 mph - 0.00 in   Overcast
10:39 PM 57.9 °F - 55.9 °F 93% 30.19 in 7.0 mi SE 11.5 mph - 0.00 in Rain Light Rain
10:56 PM 59.0 °F - 55.9 °F 90% 30.19 in 6.0 mi SSE 10.4 mph - 0.00 in   Overcast
11:13 PM 57.9 °F - 55.9 °F 93% 30.17 in 5.0 mi SSE 11.5 mph - 0.00 in Rain Light Rain
11:56 PM 60.1 °F - 57.9 °F 93% 30.15 in 5.0 mi SSE 9.2 mph - 0.01 in Rain Light Rain